Time,TemperatureF,DewpointF,PressureIn,WindDirection,WindDirectionDegrees,WindSpeedMPH,WindSpeedGustMPH,Humidity,HourlyPrecipIn,Conditions,Clouds,dailyrainin,SoftwareType,DateUTC
2013-09-03 00:03:00,52.9,44.1,29.94,WNW,292,0.0,0.0,72,0.00,CLR,OVC,0.00,WeatherDisplay:10.37,2013-09-02 14:03:00,
2013-09-03 00:08:00,52.9,44.5,29.94,WSW,248,0.0,0.0,73,0.00,CLR,OVC,0.00,WeatherDisplay:10.37,2013-09-02 14:08:00,
2013-09-03 00:13:00,52.9,44.1,29.94,WNW,292,0.0,0.0,72,0.00,CLR,OVC,0.00,WeatherDisplay:10.37,2013-09-02 14:13:00,
2013-09-03 00:18:00,52.7,44.3,29.97,WNW,292,0.0,0.0,73,0.00,CLR,OVC,0.00,WeatherDisplay:10.37,2013-09-02 14:18:00,
2013-09-03 00:23:00,52.7,44.3,29.97,South,180,0.0,0.0,73,0.00,CLR,OVC,0.00,WeatherDisplay:10.37,2013-09-02 14:23:00,
2013-09-03 00:28:00,52.5,44.1,29.97,WNW,292,0.0,0.0,73,0.00,CLR,OVC,0.00,WeatherDisplay:10.37,2013-09-02 14:28:00,
2013-09-03 00:33:00,52.3,43.9,29.97,NW,315,0.0,0.0,73,0.00,CLR,OVC,0.00,WeatherDisplay:10.37,2013-09-02 14:33:00,
2013-09-03 00:38:00,52.3,43.9,29.97,WNW,292,0.0,0.0,73,0.00,CLR,OVC,0.00,WeatherDisplay:10.37,2013-09-02 14:38:00,
2013-09-03 00:43:00,52.3,43.9,29.97,WNW,292,0.0,0.0,73,0.00,CLR,OVC,0.00,WeatherDisplay:10.37,2013-09-02 14:43:00,
2013-09-03 00:48:00,52.2,43.8,29.97,SE,135,0.0,0.0,73,0.00,CLR,OVC,0.00,WeatherDisplay:10.37,2013-09-02 14:48:00,
2013-09-03 00:53:00,52.0,43.6,29.97,WNW,292,0.0,0.0,73,0.00,CLR,OVC,0.00,WeatherDisplay:10.37,2013-09-02 14:53:00,
2013-09-03 00:58:00,51.8,43.4,29.97,WNW,292,0.0,0.0,73,0.00,CLR,OVC,0.00,WeatherDisplay:10.37,2013-09-02 14:58:00,
2013-09-03 01:03:00,51.6,43.2,29.97,ESE,112,0.0,0.0,73,0.00,CLR,OVC,0.00,WeatherDisplay:10.37,2013-09-02 15:03:00,
2013-09-03 01:08:00,51.4,43.1,29.97,ESE,112,0.0,0.0,73,0.00,CLR,OVC,0.00,WeatherDisplay:10.37,2013-09-02 15:08:00,
2013-09-03 01:13:00,51.4,43.1,29.97,ESE,112,0.0,0.0,73,0.00,CLR,OVC,0.00,WeatherDisplay:10.37,2013-09-02 15:13:00,
2013-09-03 01:18:00,51.4,43.4,29.97,ENE,68,0.0,0.0,74,0.00,CLR,OVC,0.00,WeatherDisplay:10.37,2013-09-02 15:18:00,
2013-09-03 01:23:00,51.3,43.3,29.97,ENE,68,0.0,0.0,74,0.00,CLR,OVC,0.00,WeatherDisplay:10.37,2013-09-02 15:23:00,
2013-09-03 01:28:00,51.3,42.9,29.97,South,180,0.0,0.0,73,0.00,CLR,OVC,0.00,WeatherDisplay:10.37,2013-09-02 15:28:00,
2013-09-03 01:33:00,51.1,43.1,29.97,SE,135,0.0,0.0,74,0.00,CLR,OVC,0.00,WeatherDisplay:10.37,2013-09-02 15:33:00,
2013-09-03 01:38:00,50.9,42.9,29.97,WSW,248,0.0,0.0,74,0.00,CLR,OVC,0.00,WeatherDisplay:10.37,2013-09-02 15:38:00,
2013-09-03 01:43:00,50.9,42.9,29.97,West,270,0.0,0.0,74,0.00,CLR,OVC,0.00,WeatherDisplay:10.37,2013-09-02 15:43:00,
2013-09-03 01:48:00,50.9,42.9,29.97,West,270,0.0,0.0,74,0.00,CLR,OVC,0.00,WeatherDisplay:10.37,2013-09-02 15:48:00,
2013-09-03 01:53:00,50.7,42.7,29.97,West,270,0.0,0.0,74,0.00,CLR,OVC,0.00,WeatherDisplay:10.37,2013-09-02 15:53:00,
2013-09-03 01:58:00,50.7,42.7,29.97,West,270,0.0,0.0,74,0.00,CLR,OVC,0.00,WeatherDisplay:10.37,2013-09-02 15:58:00,
2013-09-03 02:03:00,50.7,42.7,29.97,West,270,0.0,0.0,74,0.00,CLR,OVC,0.00,WeatherDisplay:10.37,2013-09-02 16:03:00,
2013-09-03 02:08:00,50.5,42.6,29.97,SE,135,0.0,0.0,74,0.00,CLR,OVC,0.00,WeatherDisplay:10.37,2013-09-02 16:08:00,
2013-09-03 02:13:00,50.5,42.6,29.97,ENE,68,0.0,0.0,74,0.00,CLR,OVC,0.00,WeatherDisplay:10.37,2013-09-02 16:13:00,
2013-09-03 02:18:00,50.5,42.6,29.97,ENE,68,0.0,0.0,74,0.00,CLR,OVC,0.00,WeatherDisplay:10.37,2013-09-02 16:18:00,
2013-09-03 02:23:00,50.4,42.4,29.97,ENE,68,0.0,0.0,74,0.00,CLR,OVC,0.00,WeatherDisplay:10.37,2013-09-02 16:23:00,
2013-09-03 02:28:00,50.2,42.2,29.97,East,90,0.0,0.0,74,0.00,CLR,OVC,0.00,WeatherDisplay:10.37,2013-09-02 16:28:00,
2013-09-03 02:33:00,50.2,42.2,29.97,East,90,0.0,0.0,74,0.00,CLR,OVC,0.00,WeatherDisplay:10.37,2013-09-02 16:33:00,
2013-09-03 02:38:00,50.2,42.2,29.97,SW,225,0.0,0.0,74,0.00,CLR,OVC,0.00,WeatherDisplay:10.37,2013-09-02 16:38:00,
2013-09-03 02:43:00,50.2,42.2,29.97,SE,135,0.0,0.0,74,0.00,CLR,OVC,0.00,WeatherDisplay:10.37,2013-09-02 16:43:00,
2013-09-03 02:48:00,50.2,42.6,29.97,SE,135,0.0,0.0,75,0.00,CLR,OVC,0.00,WeatherDisplay:10.37,2013-09-02 16:48:00,
2013-09-03 02:53:00,50.0,42.4,29.97,NW,315,0.0,0.0,75,0.00,CLR,OVC,0.00,WeatherDisplay:10.37,2013-09-02 16:53:00,
2013-09-03 02:58:00,49.8,42.2,29.97,WNW,292,0.0,0.0,75,0.00,CLR,OVC,0.00,WeatherDisplay:10.37,2013-09-02 16:58:00,
2013-09-03 03:03:00,49.8,42.2,29.97,WNW,292,0.0,0.0,75,0.00,CLR,OVC,0.00,WeatherDisplay:10.37,2013-09-02 17:03:00,
2013-09-03 03:08:00,49.6,42.0,29.97,SSE,158,0.0,0.0,75,0.00,CLR,OVC,0.00,WeatherDisplay:10.37,2013-09-02 17:08:00,
2013-09-03 03:13:00,49.6,42.0,29.97,SSE,158,0.0,0.0,75,0.00,CLR,OVC,0.00,WeatherDisplay:10.37,2013-09-02 17:13:00,
2013-09-03 03:18:00,49.5,41.9,29.97,NE,45,0.0,0.0,75,0.00,CLR,OVC,0.00,WeatherDisplay:10.37,2013-09-02 17:18:00,
2013-09-03 03:23:00,49.5,41.9,29.97,NE,45,0.0,0.0,75,0.00,CLR,OVC,0.00,WeatherDisplay:10.37,2013-09-02 17:23:00,
2013-09-03 03:28:00,49.3,41.7,29.97,NE,45,0.0,0.0,75,0.00,CLR,OVC,0.00,WeatherDisplay:10.37,2013-09-02 17:28:00,
2013-09-03 03:33:00,49.3,41.7,29.97,WNW,292,0.0,0.0,75,0.00,CLR,OVC,0.00,WeatherDisplay:10.37,2013-09-02 17:33:00,
2013-09-03 03:38:00,49.3,41.7,29.97,WNW,292,0.0,0.0,75,0.00,CLR,OVC,0.00,WeatherDisplay:10.37,2013-09-02 17:38:00,
2013-09-03 03:43:00,49.3,42.0,29.97,NW,315,0.0,0.0,76,0.00,CLR,OVC,0.00,WeatherDisplay:10.37,2013-09-02 17:43:00,
2013-09-03 03:48:00,49.3,42.0,29.97,ESE,112,0.0,0.0,76,0.00,CLR,OVC,0.00,WeatherDisplay:10.37,2013-09-02 17:48:00,
2013-09-03 03:53:00,49.1,41.9,29.97,ESE,112,0.0,0.0,76,0.00,CLR,OVC,0.00,WeatherDisplay:10.37,2013-09-02 17:53:00,
2013-09-03 03:58:00,48.9,41.3,29.97,ESE,112,0.0,0.0,75,0.00,CLR,OVC,0.00,WeatherDisplay:10.37,2013-09-02 17:58:00,
2013-09-03 04:03:00,48.9,41.3,29.97,ESE,112,0.0,0.0,75,0.00,CLR,OVC,0.00,WeatherDisplay:10.37,2013-09-02 18:03:00,
2013-09-03 04:08:00,48.9,41.3,29.97,SSE,158,0.0,0.0,75,0.00,CLR,OVC,0.00,WeatherDisplay:10.37,2013-09-02 18:08:00,
2013-09-03 04:13:00,48.7,41.2,29.97,SSE,158,0.0,0.0,75,0.00,CLR,OVC,0.00,WeatherDisplay:10.37,2013-09-02 18:13:00,
2013-09-03 04:18:00,48.7,41.2,29.97,SE,135,0.0,0.0,75,0.00,CLR,OVC,0.00,WeatherDisplay:10.37,2013-09-02 18:18:00,
2013-09-03 04:23:00,48.7,41.5,29.97,SE,135,0.0,0.0,76,0.00,CLR,OVC,0.00,WeatherDisplay:10.37,2013-09-02 18:23:00,
2013-09-03 04:28:00,48.6,41.3,29.97,WNW,292,0.0,0.0,76,0.00,CLR,OVC,0.00,WeatherDisplay:10.37,2013-09-02 18:28:00,
2013-09-03 04:33:00,48.6,41.0,29.97,ESE,112,0.0,0.0,75,0.00,CLR,OVC,0.00,WeatherDisplay:10.37,2013-09-02 18:33:00,
2013-09-03 04:38:00,48.6,41.3,29.97,ESE,112,0.0,0.0,76,0.00,CLR,OVC,0.00,WeatherDisplay:10.37,2013-09-02 18:38:00,
2013-09-03 04:43:00,48.4,41.2,29.97,SE,135,0.0,0.0,76,0.00,CLR,OVC,0.00,WeatherDisplay:10.37,2013-09-02 18:43:00,
2013-09-03 04:48:00,48.4,41.2,29.97,ESE,112,0.0,0.0,76,0.00,CLR,OVC,0.00,WeatherDisplay:10.37,2013-09-02 18:48:00,
2013-09-03 04:53:00,48.4,41.2,29.97,ESE,112,0.0,0.0,76,0.00,CLR,OVC,0.00,WeatherDisplay:10.37,2013-09-02 18:53:00,
2013-09-03 04:58:00,48.2,40.6,29.97,South,180,0.0,0.0,75,0.00,CLR,OVC,0.00,WeatherDisplay:10.37,2013-09-02 18:58:00,
2013-09-03 05:03:00,48.2,41.0,29.97,East,90,0.0,0.0,76,0.00,CLR,OVC,0.00,WeatherDisplay:10.37,2013-09-02 19:03:00,
2013-09-03 05:08:00,48.2,41.0,29.97,East,90,0.0,0.0,76,0.00,CLR,OVC,0.00,WeatherDisplay:10.37,2013-09-02 19:08:00,
2013-09-03 05:13:00,48.0,40.8,29.97,East,90,0.0,0.0,76,0.00,CLR,OVC,0.00,WeatherDisplay:10.37,2013-09-02 19:13:00,
2013-09-03 05:18:00,48.0,40.8,29.97,East,90,0.0,0.0,76,0.00,CLR,OVC,0.00,WeatherDisplay:10.37,2013-09-02 19:18:00,
2013-09-03 05:23:00,48.0,40.8,29.97,East,90,0.0,0.0,76,0.00,CLR,OVC,0.00,WeatherDisplay:10.37,2013-09-02 19:23:00,
2013-09-03 05:28:00,48.0,40.8,29.97,ESE,112,0.0,0.0,76,0.00,CLR,OVC,0.00,WeatherDisplay:10.37,2013-09-02 19:28:00,
2013-09-03 05:33:00,48.0,41.2,29.97,ESE,112,0.0,0.0,77,0.00,CLR,OVC,0.00,WeatherDisplay:10.37,2013-09-02 19:33:00,
2013-09-03 05:38:00,48.0,41.2,29.97,East,90,0.0,0.0,77,0.00,CLR,OVC,0.00,WeatherDisplay:10.37,2013-09-02 19:38:00,
2013-09-03 05:43:00,48.0,41.2,30.00,East,90,0.0,0.0,77,0.00,CLR,OVC,0.00,WeatherDisplay:10.37,2013-09-02 19:43:00,
2013-09-03 05:48:00,47.8,41.0,30.00,East,90,0.0,0.0,77,0.00,CLR,OVC,0.00,WeatherDisplay:10.37,2013-09-02 19:48:00,
2013-09-03 05:53:00,48.0,41.5,30.00,East,90,0.0,0.0,78,0.00,CLR,OVC,0.00,WeatherDisplay:10.37,2013-09-02 19:53:00,
2013-09-03 05:58:00,48.0,41.5,30.00,East,90,0.0,0.0,78,0.00,CLR,OVC,0.00,WeatherDisplay:10.37,2013-09-02 19:58:00,
2013-09-03 06:03:00,48.0,41.5,30.00,ENE,68,0.0,0.0,78,0.00,CLR,OVC,0.00,WeatherDisplay:10.37,2013-09-02 20:03:00,
2013-09-03 06:09:00,48.2,41.7,30.00,ENE,68,0.0,0.0,78,0.00,CLR,OVC,0.00,WeatherDisplay:10.37,2013-09-02 20:09:00,
2013-09-03 06:14:00,48.2,41.7,30.03,NW,315,0.0,0.0,78,0.00,CLR,OVC,0.00,WeatherDisplay:10.37,2013-09-02 20:14:00,
2013-09-03 06:19:00,48.2,41.7,30.03,NW,315,0.0,0.0,78,0.00,CLR,OVC,0.00,WeatherDisplay:10.37,2013-09-02 20:19:00,
2013-09-03 06:24:00,48.2,42.0,30.03,NW,315,0.0,0.0,79,0.00,CLR,OVC,0.00,WeatherDisplay:10.37,2013-09-02 20:24:00,
2013-09-03 06:29:00,48.4,42.2,30.03,NW,315,0.0,0.0,79,0.00,CLR,OVC,0.00,WeatherDisplay:10.37,2013-09-02 20:29:00,
2013-09-03 06:34:00,48.4,42.2,30.03,NW,315,0.0,0.0,79,0.00,CLR,OVC,0.00,WeatherDisplay:10.37,2013-09-02 20:34:00,
2013-09-03 06:39:00,48.6,42.3,30.03,NW,315,0.0,0.0,79,0.00,CLR,OVC,0.00,WeatherDisplay:10.37,2013-09-02 20:39:00,
2013-09-03 06:44:00,48.7,42.5,30.03,NW,315,0.0,0.0,79,0.00,CLR,OVC,0.00,WeatherDisplay:10.37,2013-09-02 20:44:00,
2013-09-03 06:49:00,48.7,42.8,30.03,NW,315,0.0,0.0,80,0.00,CLR,OVC,0.00,WeatherDisplay:10.37,2013-09-02 20:49:00,
2013-09-03 06:54:00,48.9,43.0,30.03,West,270,0.0,0.0,80,0.00,CLR,OVC,0.00,WeatherDisplay:10.37,2013-09-02 20:54:00,
2013-09-03 06:59:00,48.9,43.0,30.03,WNW,292,0.0,0.0,80,0.00,CLR,OVC,0.00,WeatherDisplay:10.37,2013-09-02 20:59:00,
2013-09-03 07:04:00,49.1,43.2,30.03,NNW,338,0.0,0.0,80,0.00,CLR,OVC,0.00,WeatherDisplay:10.37,2013-09-02 21:04:00,
2013-09-03 07:09:00,49.3,43.4,30.03,WNW,292,2.3,2.3,80,0.00,CLR,OVC,0.00,WeatherDisplay:10.37,2013-09-02 21:09:00,
2013-09-03 07:14:00,49.5,43.5,30.03,West,270,0.0,0.0,80,0.00,CLR,OVC,0.00,WeatherDisplay:10.37,2013-09-02 21:14:00,
2013-09-03 07:19:00,49.6,43.7,30.03,NW,315,0.0,0.0,80,0.00,CLR,OVC,0.00,WeatherDisplay:10.37,2013-09-02 21:19:00,
2013-09-03 07:24:00,49.6,44.0,30.03,NNW,338,0.0,0.0,81,0.00,CLR,OVC,0.00,WeatherDisplay:10.37,2013-09-02 21:24:00,
2013-09-03 07:29:00,49.8,44.2,30.03,NW,315,0.0,0.0,81,0.00,CLR,OVC,0.00,WeatherDisplay:10.37,2013-09-02 21:29:00,
2013-09-03 07:34:00,50.0,44.1,30.03,West,270,0.0,0.0,80,0.00,CLR,OVC,0.00,WeatherDisplay:10.37,2013-09-02 21:34:00,
2013-09-03 07:39:00,50.4,44.4,30.03,WNW,292,0.0,0.0,80,0.00,CLR,OVC,0.00,WeatherDisplay:10.37,2013-09-02 21:39:00,
2013-09-03 07:44:00,50.5,44.9,30.06,West,270,2.3,0.0,81,0.00,CLR,OVC,0.00,WeatherDisplay:10.37,2013-09-02 21:44:00,
2013-09-03 07:49:00,50.9,45.3,30.06,NNE,22,0.0,0.0,81,0.00,CLR,OVC,0.00,WeatherDisplay:10.37,2013-09-02 21:49:00,
2013-09-03 07:54:00,51.1,45.5,30.06,NNE,22,0.0,0.0,81,0.00,CLR,OVC,0.00,WeatherDisplay:10.37,2013-09-02 21:54:00,
2013-09-03 07:59:00,51.3,45.6,30.06,NNW,338,1.2,0.0,81,0.00,CLR,OVC,0.00,WeatherDisplay:10.37,2013-09-02 21:59:00,
2013-09-03 08:04:00,51.6,46.3,30.06,NNW,338,0.0,0.0,82,0.00,CLR,OVC,0.00,WeatherDisplay:10.37,2013-09-02 22:04:00,
2013-09-03 08:09:00,52.0,46.7,30.06,NNW,338,0.0,0.0,82,0.00,CLR,OVC,0.00,WeatherDisplay:10.37,2013-09-02 22:09:00,
2013-09-03 08:14:00,52.9,47.5,30.06,West,270,1.6,0.0,82,0.00,CLR,OVC,0.00,WeatherDisplay:10.37,2013-09-02 22:14:00,
2013-09-03 08:19:00,53.8,48.4,30.06,SSW,202,1.2,1.2,82,0.00,CLR,OVC,0.00,WeatherDisplay:10.37,2013-09-02 22:19:00,
2013-09-03 08:24:00,54.5,49.1,30.06,SE,135,0.0,0.0,82,0.00,CLR,OVC,0.00,WeatherDisplay:10.37,2013-09-02 22:24:00,
2013-09-03 08:29:00,55.9,50.2,30.03,NW,315,1.2,0.0,81,0.00,CLR,OVC,0.00,WeatherDisplay:10.37,2013-09-02 22:29:00,
2013-09-03 08:34:00,57.0,51.2,30.03,NNW,338,1.2,0.0,81,0.00,CLR,OVC,0.00,WeatherDisplay:10.37,2013-09-02 22:34:00,
2013-09-03 08:39:00,58.3,51.8,30.03,NNW,338,1.2,1.2,79,0.00,CLR,OVC,0.00,WeatherDisplay:10.37,2013-09-02 22:39:00,
2013-09-03 08:44:00,59.5,52.7,30.03,NNW,338,0.0,0.0,78,0.00,CLR,OVC,0.00,WeatherDisplay:10.37,2013-09-02 22:44:00,
2013-09-03 08:49:00,60.4,52.8,30.03,NNW,338,1.2,0.0,76,0.00,CLR,OVC,0.00,WeatherDisplay:10.37,2013-09-02 22:49:00,
2013-09-03 08:54:00,61.5,53.2,30.03,NNE,22,1.2,1.2,74,0.00,CLR,OVC,0.00,WeatherDisplay:10.37,2013-09-02 22:54:00,
2013-09-03 08:59:00,62.4,53.6,30.03,North,0,2.3,2.3,73,0.00,CLR,OVC,0.00,WeatherDisplay:10.37,2013-09-02 22:59:00,
2013-09-03 09:04:00,63.1,53.6,30.03,NNW,338,2.3,2.3,71,0.00,CLR,OVC,0.00,WeatherDisplay:10.37,2013-09-02 23:04:00,
2013-09-03 09:09:00,63.9,53.5,30.03,NW,315,3.8,3.8,69,0.00,CLR,OVC,0.00,WeatherDisplay:10.37,2013-09-02 23:09:00,
2013-09-03 09:14:00,64.9,53.7,30.03,North,0,4.6,4.6,67,0.00,CLR,OVC,0.00,WeatherDisplay:10.37,2013-09-02 23:14:00,
2013-09-03 09:19:00,65.8,54.6,30.03,NE,45,2.3,2.3,67,0.00,CLR,OVC,0.00,WeatherDisplay:10.37,2013-09-02 23:19:00,
2013-09-03 09:24:00,66.6,54.4,30.03,North,0,2.3,2.3,65,0.00,CLR,OVC,0.00,WeatherDisplay:10.37,2013-09-02 23:24:00,
2013-09-03 09:29:00,67.5,54.9,30.03,NNW,338,3.6,3.6,64,0.00,CLR,OVC,0.00,WeatherDisplay:10.37,2013-09-02 23:29:00,
2013-09-03 09:34:00,68.0,54.5,30.03,NW,315,2.2,0.0,62,0.00,CLR,OVC,0.00,WeatherDisplay:10.37,2013-09-02 23:34:00,
2013-09-03 09:39:00,68.5,54.1,30.03,NNW,338,1.6,1.6,60,0.00,CLR,OVC,0.00,WeatherDisplay:10.37,2013-09-02 23:39:00,
2013-09-03 09:44:00,69.3,54.8,30.03,North,0,2.9,2.9,60,0.00,CLR,OVC,0.00,WeatherDisplay:10.37,2013-09-02 23:44:00,
2013-09-03 09:49:00,70.0,54.0,30.03,WNW,292,3.5,3.5,57,0.00,CLR,OVC,0.00,WeatherDisplay:10.37,2013-09-02 23:49:00,
2013-09-03 09:54:00,70.7,54.7,30.03,North,0,2.3,2.3,57,0.00,CLR,OVC,0.00,WeatherDisplay:10.37,2013-09-02 23:54:00,
2013-09-03 09:59:00,71.4,54.4,30.00,NNW,338,0.0,0.0,55,0.00,CLR,OVC,0.00,WeatherDisplay:10.37,2013-09-02 23:59:00,
2013-09-03 10:04:00,72.0,54.4,30.00,West,270,4.0,4.0,54,0.00,CLR,OVC,0.00,WeatherDisplay:10.37,2013-09-03 00:04:00,
2013-09-03 10:09:00,72.3,54.2,30.00,North,0,2.3,0.0,53,0.00,CLR,OVC,0.00,WeatherDisplay:10.37,2013-09-03 00:09:00,
2013-09-03 10:14:00,72.5,53.9,30.03,NNW,338,3.6,0.0,52,0.00,CLR,OVC,0.00,WeatherDisplay:10.37,2013-09-03 00:14:00,
2013-09-03 10:19:00,72.9,53.1,30.03,WNW,292,2.3,2.3,50,0.00,CLR,OVC,0.00,WeatherDisplay:10.37,2013-09-03 00:19:00,
2013-09-03 10:24:00,73.9,54.1,30.03,SE,135,4.6,4.6,50,0.00,CLR,OVC,0.00,WeatherDisplay:10.37,2013-09-03 00:24:00,
2013-09-03 10:29:00,73.6,53.8,30.03,NW,315,1.6,1.6,50,0.00,CLR,OVC,0.00,WeatherDisplay:10.37,2013-09-03 00:29:00,
2013-09-03 10:35:00,74.3,53.9,30.03,ESE,112,3.8,3.8,49,0.00,CLR,OVC,0.00,WeatherDisplay:10.37,2013-09-03 00:35:00,
2013-09-03 10:40:00,74.3,53.3,30.03,NE,45,2.3,2.3,48,0.00,CLR,OVC,0.00,WeatherDisplay:10.37,2013-09-03 00:40:00,
2013-09-03 10:45:00,74.5,53.5,30.00,NE,45,5.8,5.8,48,0.00,CLR,OVC,0.00,WeatherDisplay:10.37,2013-09-03 00:45:00,
2013-09-03 10:50:00,74.5,52.3,30.00,NNE,22,4.6,4.6,46,0.00,CLR,OVC,0.00,WeatherDisplay:10.37,2013-09-03 00:50:00,
2013-09-03 10:55:00,74.8,52.7,30.00,ENE,68,3.6,3.6,46,0.00,CLR,OVC,0.00,WeatherDisplay:10.37,2013-09-03 00:55:00,
2013-09-03 11:00:00,75.0,52.8,30.00,NNE,22,4.6,4.6,46,0.00,CLR,OVC,0.00,WeatherDisplay:10.37,2013-09-03 01:00:00,
2013-09-03 11:05:00,74.5,51.7,30.00,NNE,22,3.5,3.5,45,0.00,CLR,OVC,0.00,WeatherDisplay:10.37,2013-09-03 01:05:00,
2013-09-03 11:10:00,74.7,51.9,30.00,NNE,22,5.9,5.9,45,0.00,CLR,OVC,0.00,WeatherDisplay:10.37,2013-09-03 01:10:00,
2013-09-03 11:15:00,73.9,50.0,29.97,NNE,22,4.6,4.6,43,0.00,CLR,OVC,0.00,WeatherDisplay:10.37,2013-09-03 01:15:00,
2013-09-03 11:20:00,74.1,50.8,29.97,ESE,112,4.6,4.6,44,0.00,CLR,OVC,0.00,WeatherDisplay:10.37,2013-09-03 01:20:00,
2013-09-03 11:25:00,75.2,51.8,29.97,NE,45,4.6,4.6,44,0.00,CLR,OVC,0.00,WeatherDisplay:10.37,2013-09-03 01:25:00,
2013-09-03 11:30:00,74.1,50.2,29.97,ENE,68,4.6,4.6,43,0.00,CLR,OVC,0.00,WeatherDisplay:10.37,2013-09-03 01:30:00,
2013-09-03 11:35:00,74.3,51.0,29.97,East,90,4.6,4.6,44,0.00,CLR,OVC,0.00,WeatherDisplay:10.37,2013-09-03 01:35:00,
2013-09-03 11:40:00,74.5,50.5,29.97,NNW,338,5.8,5.8,43,0.00,CLR,OVC,0.00,WeatherDisplay:10.37,2013-09-03 01:40:00,
2013-09-03 11:45:00,74.1,50.2,29.94,NE,45,4.6,4.6,43,0.00,CLR,OVC,0.00,WeatherDisplay:10.37,2013-09-03 01:45:00,
2013-09-03 11:50:00,73.6,49.1,29.94,NE,45,4.6,4.6,42,0.00,CLR,OVC,0.00,WeatherDisplay:10.37,2013-09-03 01:50:00,
2013-09-03 11:55:00,73.4,49.5,29.94,NNE,22,3.5,3.5,43,0.00,CLR,OVC,0.00,WeatherDisplay:10.37,2013-09-03 01:55:00,
2013-09-03 12:00:00,73.4,49.5,29.97,NNE,22,6.0,6.0,43,0.00,CLR,OVC,0.00,WeatherDisplay:10.37,2013-09-03 02:00:00,
2013-09-03 12:05:00,73.4,49.5,29.97,NNW,338,4.6,4.6,43,0.00,CLR,OVC,0.00,WeatherDisplay:10.37,2013-09-03 02:05:00,
2013-09-03 12:10:00,73.0,49.2,29.97,North,0,3.5,3.5,43,0.00,CLR,OVC,0.00,WeatherDisplay:10.37,2013-09-03 02:10:00,
2013-09-03 12:15:00,73.4,49.5,29.94,NE,45,5.8,5.8,43,0.00,CLR,OVC,0.00,WeatherDisplay:10.37,2013-09-03 02:15:00,
2013-09-03 12:20:00,73.8,49.9,29.94,NNE,22,3.5,3.5,43,0.00,CLR,OVC,0.00,WeatherDisplay:10.37,2013-09-03 02:20:00,
2013-09-03 12:25:00,73.9,50.0,29.94,ESE,112,6.4,6.4,43,0.00,CLR,OVC,0.00,WeatherDisplay:10.37,2013-09-03 02:25:00,
2013-09-03 12:30:00,73.8,49.9,29.94,East,90,3.5,3.5,43,0.00,CLR,OVC,0.00,WeatherDisplay:10.37,2013-09-03 02:30:00,
2013-09-03 12:35:00,73.8,49.9,29.94,East,90,3.5,3.5,43,0.00,CLR,OVC,0.00,WeatherDisplay:10.37,2013-09-03 02:35:00,
2013-09-03 12:40:00,73.8,49.9,29.94,East,90,4.6,4.6,43,0.00,CLR,OVC,0.00,WeatherDisplay:10.37,2013-09-03 02:40:00,
2013-09-03 12:45:00,73.9,50.0,29.94,East,90,1.6,0.0,43,0.00,CLR,OVC,0.00,WeatherDisplay:10.37,2013-09-03 02:45:00,
2013-09-03 12:50:00,74.3,50.4,29.94,NE,45,3.5,3.5,43,0.00,CLR,OVC,0.00,WeatherDisplay:10.37,2013-09-03 02:50:00,
2013-09-03 12:55:00,74.3,49.7,29.94,NE,45,2.4,2.4,42,0.00,CLR,OVC,0.00,WeatherDisplay:10.37,2013-09-03 02:55:00,
2013-09-03 13:00:00,74.1,49.6,29.94,East,90,3.1,3.1,42,0.00,CLR,OVC,0.00,WeatherDisplay:10.37,2013-09-03 03:00:00,
2013-09-03 13:05:00,74.7,50.0,29.94,ENE,68,4.0,4.0,42,0.00,CLR,OVC,0.00,WeatherDisplay:10.37,2013-09-03 03:05:00,
2013-09-03 13:10:00,75.0,51.0,29.94,ESE,112,4.6,4.6,43,0.00,CLR,OVC,0.00,WeatherDisplay:10.37,2013-09-03 03:10:00,
2013-09-03 13:15:00,75.0,50.4,29.91,NNE,22,3.5,3.5,42,0.00,CLR,OVC,0.00,WeatherDisplay:10.37,2013-09-03 03:15:00,
2013-09-03 13:20:00,75.4,50.7,29.91,ENE,68,2.9,2.9,42,0.00,CLR,OVC,0.00,WeatherDisplay:10.37,2013-09-03 03:20:00,
2013-09-03 13:25:00,75.6,50.2,29.91,ESE,112,4.7,4.7,41,0.00,CLR,OVC,0.00,WeatherDisplay:10.37,2013-09-03 03:25:00,
2013-09-03 13:30:00,75.2,49.9,29.91,NNE,22,3.5,3.5,41,0.00,CLR,OVC,0.00,WeatherDisplay:10.37,2013-09-03 03:30:00,
2013-09-03 13:35:00,75.4,49.4,29.91,NNE,22,4.6,4.6,40,0.00,CLR,OVC,0.00,WeatherDisplay:10.37,2013-09-03 03:35:00,
2013-09-03 13:40:00,75.2,49.2,29.91,ENE,68,3.5,3.5,40,0.00,CLR,OVC,0.00,WeatherDisplay:10.37,2013-09-03 03:40:00,
2013-09-03 13:45:00,75.4,49.4,29.88,North,0,3.5,3.5,40,0.00,CLR,OVC,0.00,WeatherDisplay:10.37,2013-09-03 03:45:00,
2013-09-03 13:50:00,75.4,48.7,29.88,NE,45,6.9,6.9,39,0.00,CLR,OVC,0.00,WeatherDisplay:10.37,2013-09-03 03:50:00,
2013-09-03 13:55:00,75.0,49.1,29.88,NE,45,4.6,4.6,40,0.00,CLR,OVC,0.00,WeatherDisplay:10.37,2013-09-03 03:55:00,
2013-09-03 14:00:00,75.0,49.1,29.91,NNE,22,3.6,3.6,40,0.00,CLR,OVC,0.00,WeatherDisplay:10.37,2013-09-03 04:00:00,
2013-09-03 14:01:00,75.0,49.1,29.91,ENE,68,3.5,3.5,40,0.00,CLR,OVC,0.00,WeatherDisplay:10.37,2013-09-03 04:01:00,
2013-09-03 14:06:00,74.7,48.7,29.91,ENE,68,9.2,9.2,40,0.00,CLR,OVC,0.00,WeatherDisplay:10.37,2013-09-03 04:06:00,
2013-09-03 14:11:00,74.8,48.9,29.91,SE,135,4.6,4.6,40,0.00,CLR,OVC,0.00,WeatherDisplay:10.37,2013-09-03 04:11:00,
2013-09-03 14:16:00,74.8,48.9,29.91,ENE,68,3.5,3.5,40,0.00,CLR,OVC,0.00,WeatherDisplay:10.37,2013-09-03 04:16:00,
2013-09-03 14:21:00,74.7,48.7,29.91,NE,45,2.4,2.4,40,0.00,CLR,OVC,0.00,WeatherDisplay:10.37,2013-09-03 04:21:00,
2013-09-03 14:26:00,74.7,49.4,29.91,ESE,112,4.6,4.6,41,0.00,CLR,OVC,0.00,WeatherDisplay:10.37,2013-09-03 04:26:00,
2013-09-03 14:31:00,74.7,49.4,29.88,ENE,68,4.6,4.6,41,0.00,CLR,OVC,0.00,WeatherDisplay:10.37,2013-09-03 04:31:00,
2013-09-03 14:36:00,74.3,48.4,29.88,NE,45,4.3,4.3,40,0.00,CLR,OVC,0.00,WeatherDisplay:10.37,2013-09-03 04:36:00,
2013-09-03 14:41:00,74.1,48.2,29.88,NNE,22,5.8,5.8,40,0.00,CLR,OVC,0.00,WeatherDisplay:10.37,2013-09-03 04:41:00,
2013-09-03 14:46:00,73.9,48.1,29.88,ESE,112,3.5,3.5,40,0.00,CLR,OVC,0.00,WeatherDisplay:10.37,2013-09-03 04:46:00,
2013-09-03 14:51:00,73.9,48.1,29.88,ENE,68,3.5,3.5,40,0.00,CLR,OVC,0.00,WeatherDisplay:10.37,2013-09-03 04:51:00,
2013-09-03 14:56:00,73.9,48.1,29.88,NNE,22,2.9,2.9,40,0.00,CLR,OVC,0.00,WeatherDisplay:10.37,2013-09-03 04:56:00,
2013-09-03 15:01:00,73.6,48.4,29.88,NE,45,3.5,3.5,41,0.00,CLR,OVC,0.00,WeatherDisplay:10.37,2013-09-03 05:01:00,
2013-09-03 15:06:00,73.4,48.3,29.88,SSE,158,5.8,5.8,41,0.00,CLR,OVC,0.00,WeatherDisplay:10.37,2013-09-03 05:06:00,
2013-09-03 15:11:00,73.2,48.1,29.88,ENE,68,3.5,3.5,41,0.00,CLR,OVC,0.00,WeatherDisplay:10.37,2013-09-03 05:11:00,
2013-09-03 15:16:00,73.0,47.9,29.88,North,0,2.6,2.6,41,0.00,CLR,OVC,0.00,WeatherDisplay:10.37,2013-09-03 05:16:00,
2013-09-03 15:21:00,73.0,48.6,29.88,ENE,68,2.3,2.3,42,0.00,CLR,OVC,0.00,WeatherDisplay:10.37,2013-09-03 05:21:00,
2013-09-03 15:26:00,73.0,48.6,29.88,ESE,112,4.3,4.3,42,0.00,CLR,OVC,0.00,WeatherDisplay:10.37,2013-09-03 05:26:00,
2013-09-03 15:31:00,72.7,48.3,29.88,NNE,22,3.5,3.5,42,0.00,CLR,OVC,0.00,WeatherDisplay:10.37,2013-09-03 05:31:00,
2013-09-03 15:36:00,72.7,48.3,29.88,East,90,3.5,3.5,42,0.00,CLR,OVC,0.00,WeatherDisplay:10.37,2013-09-03 05:36:00,
2013-09-03 15:41:00,72.5,48.7,29.88,ESE,112,5.8,5.8,43,0.00,CLR,OVC,0.00,WeatherDisplay:10.37,2013-09-03 05:41:00,
2013-09-03 15:46:00,72.5,48.1,29.88,ESE,112,5.8,5.8,42,0.00,CLR,OVC,0.00,WeatherDisplay:10.37,2013-09-03 05:46:00,
2013-09-03 15:51:00,72.3,47.9,29.88,NE,45,5.8,5.8,42,0.00,CLR,OVC,0.00,WeatherDisplay:10.37,2013-09-03 05:51:00,
2013-09-03 15:56:00,72.3,47.9,29.88,NNE,22,4.6,4.6,42,0.00,CLR,OVC,0.00,WeatherDisplay:10.37,2013-09-03 05:56:00,
2013-09-03 16:01:00,72.1,47.8,29.88,NNE,22,4.3,4.3,42,0.00,CLR,OVC,0.00,WeatherDisplay:10.37,2013-09-03 06:01:00,
2013-09-03 16:06:00,72.0,47.6,29.88,ENE,68,2.3,2.3,42,0.00,CLR,OVC,0.00,WeatherDisplay:10.37,2013-09-03 06:06:00,
2013-09-03 16:11:00,71.8,48.1,29.88,ENE,68,3.3,3.3,43,0.00,CLR,OVC,0.00,WeatherDisplay:10.37,2013-09-03 06:11:00,
2013-09-03 16:16:00,71.6,47.9,29.88,ENE,68,3.5,3.5,43,0.00,CLR,OVC,0.00,WeatherDisplay:10.37,2013-09-03 06:16:00,
2013-09-03 16:21:00,71.4,48.4,29.88,ESE,112,4.6,4.6,44,0.00,CLR,OVC,0.00,WeatherDisplay:10.37,2013-09-03 06:21:00,
2013-09-03 16:26:00,71.2,48.8,29.88,NE,45,3.5,3.5,45,0.00,CLR,OVC,0.00,WeatherDisplay:10.37,2013-09-03 06:26:00,
2013-09-03 16:31:00,71.1,48.6,29.88,ESE,112,2.3,2.3,45,0.00,CLR,OVC,0.00,WeatherDisplay:10.37,2013-09-03 06:31:00,
2013-09-03 16:36:00,70.7,48.9,29.88,ESE,112,4.6,4.6,46,0.00,CLR,OVC,0.00,WeatherDisplay:10.37,2013-09-03 06:36:00,
2013-09-03 16:41:00,70.5,48.7,29.88,ENE,68,4.6,4.6,46,0.00,CLR,OVC,0.00,WeatherDisplay:10.37,2013-09-03 06:41:00,
2013-09-03 16:46:00,70.2,49.0,29.91,ESE,112,5.8,5.8,47,0.00,CLR,OVC,0.00,WeatherDisplay:10.37,2013-09-03 06:46:00,
2013-09-03 16:51:00,69.8,49.2,29.91,ESE,112,4.6,4.6,48,0.00,CLR,OVC,0.00,WeatherDisplay:10.37,2013-09-03 06:51:00,
2013-09-03 16:56:00,69.6,50.2,29.91,East,90,6.9,6.9,50,0.00,CLR,OVC,0.00,WeatherDisplay:10.37,2013-09-03 06:56:00,
2013-09-03 17:02:00,69.3,50.4,29.91,SSE,158,4.6,4.6,51,0.00,CLR,OVC,0.00,WeatherDisplay:10.37,2013-09-03 07:02:00,
2013-09-03 17:06:00,69.1,50.2,29.91,ESE,112,5.8,5.8,51,0.00,CLR,OVC,0.00,WeatherDisplay:10.37,2013-09-03 07:06:00,
2013-09-03 17:11:00,68.9,50.5,29.91,East,90,4.0,4.0,52,0.00,CLR,OVC,0.00,WeatherDisplay:10.37,2013-09-03 07:11:00,
2013-09-03 17:17:00,68.5,50.7,29.91,SE,135,3.5,3.5,53,0.00,CLR,OVC,0.00,WeatherDisplay:10.37,2013-09-03 07:17:00,
2013-09-03 17:22:00,68.4,51.1,29.91,ENE,68,2.6,2.6,54,0.00,CLR,OVC,0.00,WeatherDisplay:10.37,2013-09-03 07:22:00,
2013-09-03 17:27:00,68.2,50.9,29.91,NE,45,2.3,2.3,54,0.00,CLR,OVC,0.00,WeatherDisplay:10.37,2013-09-03 07:27:00,
2013-09-03 17:32:00,68.0,51.2,29.94,SE,135,2.6,2.6,55,0.00,CLR,OVC,0.00,WeatherDisplay:10.37,2013-09-03 07:32:00,
2013-09-03 17:37:00,67.6,51.4,29.94,ENE,68,3.5,3.5,56,0.00,CLR,OVC,0.00,WeatherDisplay:10.37,2013-09-03 07:37:00,
2013-09-03 17:42:00,67.5,51.2,29.94,ESE,112,2.3,2.3,56,0.00,CLR,OVC,0.00,WeatherDisplay:10.37,2013-09-03 07:42:00,
2013-09-03 17:47:00,67.1,51.4,29.91,NNE,22,3.5,3.5,57,0.00,CLR,OVC,0.00,WeatherDisplay:10.37,2013-09-03 07:47:00,
2013-09-03 17:52:00,66.9,51.2,29.91,SE,135,4.6,4.6,57,0.00,CLR,OVC,0.00,WeatherDisplay:10.37,2013-09-03 07:52:00,
2013-09-03 17:57:00,66.6,50.8,29.91,NE,45,3.5,3.5,57,0.00,CLR,OVC,0.00,WeatherDisplay:10.37,2013-09-03 07:57:00,
2013-09-03 18:02:00,66.4,51.2,29.91,ESE,112,2.3,2.3,58,0.00,CLR,OVC,0.00,WeatherDisplay:10.37,2013-09-03 08:02:00,
2013-09-03 18:07:00,66.2,51.0,29.91,East,90,4.6,4.6,58,0.00,CLR,OVC,0.00,WeatherDisplay:10.37,2013-09-03 08:07:00,
2013-09-03 18:12:00,66.0,51.3,29.91,East,90,1.2,1.2,59,0.00,CLR,OVC,0.00,WeatherDisplay:10.37,2013-09-03 08:12:00,
2013-09-03 18:17:00,65.8,51.1,29.91,ENE,68,1.2,0.0,59,0.00,CLR,OVC,0.00,WeatherDisplay:10.37,2013-09-03 08:17:00,
2013-09-03 18:22:00,65.7,51.4,29.91,ESE,112,2.3,2.3,60,0.00,CLR,OVC,0.00,WeatherDisplay:10.37,2013-09-03 08:22:00,
2013-09-03 18:27:00,65.3,51.1,29.91,ESE,112,2.3,2.3,60,0.00,CLR,OVC,0.00,WeatherDisplay:10.37,2013-09-03 08:27:00,
2013-09-03 18:32:00,65.1,50.9,29.91,ESE,112,0.0,0.0,60,0.00,CLR,OVC,0.00,WeatherDisplay:10.37,2013-09-03 08:32:00,
2013-09-03 18:37:00,64.9,50.7,29.91,NE,45,3.5,3.5,60,0.00,CLR,OVC,0.00,WeatherDisplay:10.37,2013-09-03 08:37:00,
2013-09-03 18:42:00,64.8,51.0,29.91,SSE,158,2.3,2.3,61,0.00,CLR,OVC,0.00,WeatherDisplay:10.37,2013-09-03 08:42:00,
2013-09-03 18:47:00,64.6,50.8,29.94,NNE,22,0.0,0.0,61,0.00,CLR,OVC,0.00,WeatherDisplay:10.37,2013-09-03 08:47:00,
2013-09-03 18:52:00,64.4,51.1,29.94,NNW,338,0.0,0.0,62,0.00,CLR,OVC,0.00,WeatherDisplay:10.37,2013-09-03 08:52:00,
2013-09-03 18:57:00,64.2,50.9,29.94,SE,135,0.0,0.0,62,0.00,CLR,OVC,0.00,WeatherDisplay:10.37,2013-09-03 08:57:00,
2013-09-03 19:02:00,64.0,51.2,29.94,ESE,112,1.2,0.0,63,0.00,CLR,OVC,0.00,WeatherDisplay:10.37,2013-09-03 09:02:00,
2013-09-03 19:07:00,63.7,50.8,29.94,NE,45,2.3,2.3,63,0.00,CLR,OVC,0.00,WeatherDisplay:10.37,2013-09-03 09:07:00,
2013-09-03 19:12:00,63.5,51.1,29.94,NNE,22,2.2,2.2,64,0.00,CLR,OVC,0.00,WeatherDisplay:10.37,2013-09-03 09:12:00,
2013-09-03 19:17:00,63.5,50.7,29.94,SSE,158,1.2,0.0,63,0.00,CLR,OVC,0.00,WeatherDisplay:10.37,2013-09-03 09:17:00,
2013-09-03 19:22:00,63.1,50.8,29.94,NNE,22,0.0,0.0,64,0.00,CLR,OVC,0.00,WeatherDisplay:10.37,2013-09-03 09:22:00,
2013-09-03 19:27:00,63.0,50.6,29.94,ESE,112,0.0,0.0,64,0.00,CLR,OVC,0.00,WeatherDisplay:10.37,2013-09-03 09:27:00,
2013-09-03 19:32:00,62.8,50.8,29.94,SSE,158,0.0,0.0,65,0.00,CLR,OVC,0.00,WeatherDisplay:10.37,2013-09-03 09:32:00,
2013-09-03 19:37:00,62.6,50.7,29.94,SE,135,0.0,0.0,65,0.00,CLR,OVC,0.00,WeatherDisplay:10.37,2013-09-03 09:37:00,
2013-09-03 19:42:00,62.6,50.7,29.94,North,0,1.2,1.2,65,0.00,CLR,OVC,0.00,WeatherDisplay:10.37,2013-09-03 09:42:00,
2013-09-03 19:47:00,62.4,50.9,29.94,SSE,158,2.2,0.0,66,0.00,CLR,OVC,0.00,WeatherDisplay:10.37,2013-09-03 09:47:00,
2013-09-03 19:52:00,62.1,49.7,29.94,SW,225,0.0,0.0,64,0.00,CLR,OVC,0.00,WeatherDisplay:10.37,2013-09-03 09:52:00,
2013-09-03 19:57:00,61.9,49.6,29.94,SSW,202,0.0,0.0,64,0.00,CLR,OVC,0.00,WeatherDisplay:10.37,2013-09-03 09:57:00,
2013-09-03 20:02:00,61.7,49.8,29.97,South,180,0.0,0.0,65,0.00,CLR,OVC,0.00,WeatherDisplay:10.37,2013-09-03 10:02:00,
2013-09-03 20:07:00,61.3,49.5,29.97,South,180,2.9,2.9,65,0.00,CLR,OVC,0.00,WeatherDisplay:10.37,2013-09-03 10:07:00,
2013-09-03 20:12:00,61.2,49.3,29.97,South,180,1.2,0.0,65,0.00,CLR,OVC,0.00,WeatherDisplay:10.37,2013-09-03 10:12:00,
2013-09-03 20:17:00,61.0,49.5,29.97,South,180,2.3,0.0,66,0.00,CLR,OVC,0.00,WeatherDisplay:10.37,2013-09-03 10:17:00,
2013-09-03 20:22:00,60.8,49.8,29.97,South,180,2.3,2.3,67,0.00,CLR,OVC,0.00,WeatherDisplay:10.37,2013-09-03 10:22:00,
2013-09-03 20:27:00,60.6,49.6,29.97,South,180,2.3,0.0,67,0.00,CLR,OVC,0.00,WeatherDisplay:10.37,2013-09-03 10:27:00,
2013-09-03 20:32:00,60.6,50.0,29.94,ESE,112,3.5,3.5,68,0.00,CLR,OVC,0.00,WeatherDisplay:10.37,2013-09-03 10:32:00,
2013-09-03 20:37:00,60.4,49.8,29.94,SE,135,3.5,3.5,68,0.00,CLR,OVC,0.00,WeatherDisplay:10.37,2013-09-03 10:37:00,
2013-09-03 20:42:00,60.3,50.0,29.94,ESE,112,2.3,2.3,69,0.00,CLR,OVC,0.00,WeatherDisplay:10.37,2013-09-03 10:42:00,
2013-09-03 20:47:00,60.1,49.9,29.94,SE,135,3.5,3.5,69,0.00,CLR,OVC,0.00,WeatherDisplay:10.37,2013-09-03 10:47:00,
2013-09-03 20:52:00,60.1,49.9,29.94,SE,135,2.3,2.3,69,0.00,CLR,OVC,0.00,WeatherDisplay:10.37,2013-09-03 10:52:00,
2013-09-03 20:57:00,59.9,49.7,29.94,SSE,158,2.3,2.3,69,0.00,CLR,OVC,0.00,WeatherDisplay:10.37,2013-09-03 10:57:00,
2013-09-03 21:02:00,59.9,50.1,29.97,ESE,112,0.0,0.0,70,0.00,CLR,OVC,0.00,WeatherDisplay:10.37,2013-09-03 11:02:00,
2013-09-03 21:07:00,59.7,49.9,29.97,SSE,158,3.5,3.5,70,0.00,CLR,OVC,0.00,WeatherDisplay:10.37,2013-09-03 11:07:00,
2013-09-03 21:12:00,59.5,49.7,29.97,SSE,158,2.3,2.6,70,0.00,CLR,OVC,0.00,WeatherDisplay:10.37,2013-09-03 11:12:00,
2013-09-03 21:17:00,59.4,49.6,29.97,ESE,112,2.3,2.3,70,0.00,CLR,OVC,0.00,WeatherDisplay:10.37,2013-09-03 11:17:00,
2013-09-03 21:22:00,59.2,49.8,29.97,SE,135,2.4,2.4,71,0.00,CLR,OVC,0.00,WeatherDisplay:10.37,2013-09-03 11:22:00,
2013-09-03 21:27:00,59.2,49.8,29.97,ESE,112,2.9,2.9,71,0.00,CLR,OVC,0.00,WeatherDisplay:10.37,2013-09-03 11:27:00,
2013-09-03 21:32:00,59.0,49.6,29.97,ESE,112,2.3,2.3,71,0.00,CLR,OVC,0.00,WeatherDisplay:10.37,2013-09-03 11:32:00,
2013-09-03 21:37:00,58.8,49.4,29.97,SE,135,2.9,2.9,71,0.00,CLR,OVC,0.00,WeatherDisplay:10.37,2013-09-03 11:37:00,
2013-09-03 21:42:00,58.8,49.8,29.97,East,90,2.3,2.3,72,0.00,CLR,OVC,0.00,WeatherDisplay:10.37,2013-09-03 11:42:00,
2013-09-03 21:47:00,58.6,49.6,29.97,SE,135,3.5,3.5,72,0.00,CLR,OVC,0.00,WeatherDisplay:10.37,2013-09-03 11:47:00,
2013-09-03 21:52:00,58.5,49.8,29.97,ESE,112,3.5,3.5,73,0.00,CLR,OVC,0.00,WeatherDisplay:10.37,2013-09-03 11:52:00,
2013-09-03 21:57:00,58.3,49.7,29.97,ESE,112,3.5,3.5,73,0.00,CLR,OVC,0.00,WeatherDisplay:10.37,2013-09-03 11:57:00,
2013-09-03 22:02:00,58.1,49.5,29.94,ESE,112,3.5,3.5,73,0.00,CLR,OVC,0.00,WeatherDisplay:10.37,2013-09-03 12:02:00,
2013-09-03 22:07:00,58.1,49.5,29.94,SE,135,2.3,2.3,73,0.00,CLR,OVC,0.00,WeatherDisplay:10.37,2013-09-03 12:07:00,
2013-09-03 22:12:00,57.9,49.3,29.94,ESE,112,2.9,2.9,73,0.00,CLR,OVC,0.00,WeatherDisplay:10.37,2013-09-03 12:12:00,
2013-09-03 22:17:00,57.9,49.7,29.97,ESE,112,2.6,0.0,74,0.00,CLR,OVC,0.00,WeatherDisplay:10.37,2013-09-03 12:17:00,
2013-09-03 22:22:00,57.7,49.5,29.97,SE,135,2.6,2.6,74,0.00,CLR,OVC,0.00,WeatherDisplay:10.37,2013-09-03 12:22:00,
2013-09-03 22:27:00,57.7,49.5,29.97,SSE,158,3.5,3.5,74,0.00,CLR,OVC,0.00,WeatherDisplay:10.37,2013-09-03 12:27:00,
2013-09-03 22:32:00,57.6,49.3,29.97,ESE,112,2.6,2.6,74,0.00,CLR,OVC,0.00,WeatherDisplay:10.37,2013-09-03 12:32:00,
2013-09-03 22:37:00,57.4,49.5,29.97,SE,135,2.6,2.6,75,0.00,CLR,OVC,0.00,WeatherDisplay:10.37,2013-09-03 12:37:00,
2013-09-03 22:42:00,57.2,49.3,29.97,ESE,112,2.6,2.6,75,0.00,CLR,OVC,0.00,WeatherDisplay:10.37,2013-09-03 12:42:00,
2013-09-03 22:47:00,57.2,49.3,29.97,SE,135,2.6,2.6,75,0.00,CLR,OVC,0.00,WeatherDisplay:10.37,2013-09-03 12:47:00,
2013-09-03 22:52:00,57.2,49.3,29.97,ESE,112,3.5,3.5,75,0.00,CLR,OVC,0.00,WeatherDisplay:10.37,2013-09-03 12:52:00,
2013-09-03 22:57:00,57.0,49.5,29.97,ESE,112,2.4,2.4,76,0.00,CLR,OVC,0.00,WeatherDisplay:10.37,2013-09-03 12:57:00,
2013-09-03 23:02:00,56.8,49.4,29.94,SSE,158,3.5,3.5,76,0.00,CLR,OVC,0.00,WeatherDisplay:10.37,2013-09-03 13:02:00,
2013-09-03 23:07:00,56.8,49.4,29.94,East,90,2.3,2.3,76,0.00,CLR,OVC,0.00,WeatherDisplay:10.37,2013-09-03 13:07:00,
2013-09-03 23:12:00,56.8,49.4,29.94,ESE,112,2.3,2.3,76,0.00,CLR,OVC,0.00,WeatherDisplay:10.37,2013-09-03 13:12:00,
2013-09-03 23:17:00,56.7,49.2,29.97,SE,135,3.5,3.5,76,0.00,CLR,OVC,0.00,WeatherDisplay:10.37,2013-09-03 13:17:00,
2013-09-03 23:22:00,56.7,49.2,29.97,SSE,158,3.5,3.5,76,0.00,CLR,OVC,0.00,WeatherDisplay:10.37,2013-09-03 13:22:00,
2013-09-03 23:27:00,56.7,49.2,29.97,ESE,112,2.9,2.9,76,0.00,CLR,OVC,0.00,WeatherDisplay:10.37,2013-09-03 13:27:00,
2013-09-03 23:32:00,56.5,49.0,29.97,ESE,112,2.3,2.4,76,0.00,CLR,OVC,0.00,WeatherDisplay:10.37,2013-09-03 13:32:00,
2013-09-03 23:37:00,56.3,49.2,29.97,ESE,112,2.3,2.4,77,0.00,CLR,OVC,0.00,WeatherDisplay:10.37,2013-09-03 13:37:00,
2013-09-03 23:42:00,56.3,49.2,29.97,East,90,0.0,0.0,77,0.00,CLR,OVC,0.00,WeatherDisplay:10.37,2013-09-03 13:42:00,
2013-09-03 23:47:00,56.3,49.2,29.94,ESE,112,0.0,0.0,77,0.00,CLR,OVC,0.00,WeatherDisplay:10.37,2013-09-03 13:47:00,
2013-09-03 23:52:00,56.1,49.0,29.94,ESE,112,2.3,2.3,77,0.00,CLR,OVC,0.00,WeatherDisplay:10.37,2013-09-03 13:52:00,
2013-09-03 23:57:00,55.9,48.8,29.94,ESE,112,0.0,0.0,77,0.00,CLR,OVC,0.00,WeatherDisplay:10.37,2013-09-03 13:57:00,